Year,Month,Day,Hour,Minute,Value (Times are PST for windgust in km/hr)
2016,03,08,00,00,1.60
2016,03,08,00,01,1.60
2016,03,08,00,07,1.60
2016,03,08,00,09,1.60
2016,03,08,00,10,1.60
2016,03,08,00,11,1.60
2016,03,08,00,24,1.60
2016,03,08,00,25,1.60
2016,03,08,00,27,3.20
2016,03,08,00,28,3.20
2016,03,08,00,29,1.60
2016,03,08,00,30,3.20
2016,03,08,00,31,1.60
2016,03,08,00,32,1.60
2016,03,08,00,33,1.60
2016,03,08,00,34,1.60
2016,03,08,00,35,4.80
2016,03,08,00,36,6.40
2016,03,08,00,37,6.40
2016,03,08,00,38,4.80
2016,03,08,00,39,4.80
2016,03,08,00,40,4.80
2016,03,08,00,41,4.80
2016,03,08,00,42,4.80
2016,03,08,00,43,6.40
2016,03,08,00,44,4.80
2016,03,08,00,47,3.20
2016,03,08,00,48,1.60
2016,03,08,00,49,1.60
2016,03,08,00,50,1.60
2016,03,08,00,51,1.60
2016,03,08,00,52,1.60
2016,03,08,00,53,1.60
2016,03,08,00,54,1.60
2016,03,08,00,55,1.60
2016,03,08,00,56,1.60
2016,03,08,00,57,3.20
2016,03,08,00,58,3.20
2016,03,08,00,59,3.20
2016,03,08,01,00,3.20
2016,03,08,01,01,4.80
2016,03,08,01,02,3.20
2016,03,08,01,03,3.20
2016,03,08,01,04,1.60
2016,03,08,01,05,1.60
2016,03,08,01,06,1.60
2016,03,08,01,07,1.60
2016,03,08,01,08,1.60
2016,03,08,01,09,1.60
2016,03,08,01,10,1.60
2016,03,08,01,30,1.60
2016,03,08,01,31,1.60
2016,03,08,01,32,1.60
2016,03,08,01,35,1.60
2016,03,08,01,41,1.60
2016,03,08,01,42,3.20
2016,03,08,01,43,3.20
2016,03,08,01,44,3.20
2016,03,08,01,45,1.60
2016,03,08,01,46,1.60
2016,03,08,01,47,1.60
2016,03,08,01,48,3.20
2016,03,08,01,49,1.60
2016,03,08,01,50,1.60
2016,03,08,01,51,1.60
2016,03,08,01,52,1.60
2016,03,08,01,53,1.60
2016,03,08,01,54,3.20
2016,03,08,01,55,3.20
2016,03,08,01,56,3.20
2016,03,08,01,57,1.60
2016,03,08,01,58,1.60
2016,03,08,02,01,1.60
2016,03,08,02,02,4.80
2016,03,08,02,03,4.80
2016,03,08,02,04,1.60
2016,03,08,02,05,1.60
2016,03,08,02,06,3.20
2016,03,08,02,07,6.40
2016,03,08,02,08,4.80
2016,03,08,02,09,6.40
2016,03,08,02,10,3.20
2016,03,08,02,11,3.20
2016,03,08,02,12,4.80
2016,03,08,02,13,4.80
2016,03,08,02,14,6.40
2016,03,08,02,15,6.40
2016,03,08,02,16,4.80
2016,03,08,02,17,3.20
2016,03,08,02,18,3.20
2016,03,08,02,19,3.20
2016,03,08,02,20,1.60
2016,03,08,02,23,1.60
2016,03,08,02,25,1.60
2016,03,08,02,26,1.60
2016,03,08,02,27,1.60
2016,03,08,02,28,3.20
2016,03,08,02,29,3.20
2016,03,08,02,30,4.80
2016,03,08,02,31,3.20
2016,03,08,02,32,3.20
2016,03,08,02,33,1.60
2016,03,08,02,34,3.20
2016,03,08,02,35,1.60
2016,03,08,02,36,3.20
2016,03,08,02,37,1.60
2016,03,08,02,38,1.60
2016,03,08,02,39,3.20
2016,03,08,02,40,1.60
2016,03,08,02,41,3.20
2016,03,08,02,42,3.20
2016,03,08,02,43,3.20
2016,03,08,02,45,1.60
2016,03,08,02,46,1.60
2016,03,08,02,47,1.60
2016,03,08,02,51,1.60
2016,03,08,02,52,3.20
2016,03,08,02,53,3.20
2016,03,08,02,54,3.20
2016,03,08,02,55,1.60
2016,03,08,02,56,1.60
2016,03,08,02,57,3.20
2016,03,08,02,58,3.20
2016,03,08,02,59,1.60
2016,03,08,03,00,1.60
2016,03,08,03,08,1.60
2016,03,08,03,09,1.60
2016,03,08,03,10,1.60
2016,03,08,03,14,1.60
2016,03,08,03,15,3.20
2016,03,08,03,16,3.20
2016,03,08,03,17,3.20
2016,03,08,03,18,4.80
2016,03,08,03,19,4.80
2016,03,08,03,20,4.80
2016,03,08,03,21,4.80
2016,03,08,03,22,4.80
2016,03,08,03,23,3.20
2016,03,08,03,24,3.20
2016,03,08,03,25,3.20
2016,03,08,03,26,1.60
2016,03,08,03,27,3.20
2016,03,08,03,28,3.20
2016,03,08,03,29,3.20
2016,03,08,03,30,3.20
2016,03,08,03,31,1.60
2016,03,08,03,32,1.60
2016,03,08,03,37,1.60
2016,03,08,03,38,1.60
2016,03,08,03,39,1.60
2016,03,08,03,40,1.60
2016,03,08,03,41,1.60
2016,03,08,03,42,1.60
2016,03,08,03,43,1.60
2016,03,08,03,44,1.60
2016,03,08,03,45,3.20
2016,03,08,03,46,3.20
2016,03,08,03,47,4.80
2016,03,08,03,48,3.20
2016,03,08,03,49,3.20
2016,03,08,03,50,3.20
2016,03,08,03,51,3.20
2016,03,08,03,52,3.20
2016,03,08,03,53,3.20
2016,03,08,03,54,3.20
2016,03,08,03,55,3.20
2016,03,08,03,56,1.60
2016,03,08,03,57,3.20
2016,03,08,03,58,3.20
2016,03,08,03,59,1.60
2016,03,08,04,00,1.60
2016,03,08,04,01,1.60
2016,03,08,04,02,3.20
2016,03,08,04,03,1.60
2016,03,08,04,04,1.60
2016,03,08,04,05,1.60
2016,03,08,04,06,3.20
2016,03,08,04,07,4.80
2016,03,08,04,08,3.20
2016,03,08,04,09,3.20
2016,03,08,04,10,1.60
2016,03,08,04,11,3.20
2016,03,08,04,12,1.60
2016,03,08,04,13,1.60
2016,03,08,04,14,3.20
2016,03,08,04,15,1.60
2016,03,08,04,17,3.20
2016,03,08,04,18,3.20
2016,03,08,04,19,3.20
2016,03,08,04,20,3.20
2016,03,08,04,21,3.20
2016,03,08,04,22,1.60
2016,03,08,04,23,3.20
2016,03,08,04,24,4.80
2016,03,08,04,25,4.80
2016,03,08,04,26,6.40
2016,03,08,04,27,6.40
2016,03,08,04,28,6.40
2016,03,08,04,29,6.40
2016,03,08,04,30,4.80
2016,03,08,04,31,4.80
2016,03,08,04,32,4.80
2016,03,08,04,33,3.20
2016,03,08,04,34,1.60
2016,03,08,04,35,3.20
2016,03,08,04,36,1.60
2016,03,08,04,37,1.60
2016,03,08,04,38,1.60
2016,03,08,04,39,1.60
2016,03,08,04,40,1.60
2016,03,08,04,41,4.80
2016,03,08,04,42,1.60
2016,03,08,04,43,1.60
2016,03,08,04,44,1.60
2016,03,08,04,47,1.60
2016,03,08,04,48,3.20
2016,03,08,04,49,3.20
2016,03,08,04,50,1.60
2016,03,08,04,51,1.60
2016,03,08,04,52,1.60
2016,03,08,04,53,1.60
2016,03,08,04,54,1.60
2016,03,08,04,56,1.60
2016,03,08,04,58,1.60
2016,03,08,04,59,1.60
2016,03,08,05,00,1.60
2016,03,08,05,01,4.80
2016,03,08,05,02,4.80
2016,03,08,05,03,3.20
2016,03,08,05,04,3.20
2016,03,08,05,05,3.20
2016,03,08,05,06,3.20
2016,03,08,05,07,3.20
2016,03,08,05,08,3.20
2016,03,08,05,09,1.60
2016,03,08,05,10,3.20
2016,03,08,05,11,3.20
2016,03,08,05,12,4.80
2016,03,08,05,13,4.80
2016,03,08,05,14,3.20
2016,03,08,05,15,3.20
2016,03,08,05,16,3.20
2016,03,08,05,17,3.20
2016,03,08,05,18,3.20
2016,03,08,05,19,3.20
2016,03,08,05,20,1.60
2016,03,08,05,21,3.20
2016,03,08,05,22,1.60
2016,03,08,05,28,1.60
2016,03,08,05,29,1.60
2016,03,08,05,30,1.60
2016,03,08,05,31,1.60
2016,03,08,05,32,1.60
2016,03,08,05,33,1.60
2016,03,08,05,34,1.60
2016,03,08,05,35,1.60
2016,03,08,05,36,1.60
2016,03,08,05,37,1.60
2016,03,08,05,38,1.60
2016,03,08,05,39,1.60
2016,03,08,05,40,1.60
2016,03,08,05,41,1.60
2016,03,08,05,42,1.60
2016,03,08,05,43,3.20
2016,03,08,05,44,3.20
2016,03,08,05,45,3.20
2016,03,08,05,46,1.60
2016,03,08,05,47,1.60
2016,03,08,05,55,1.60
2016,03,08,05,56,1.60
2016,03,08,05,57,3.20
2016,03,08,05,58,3.20
2016,03,08,05,59,3.20
2016,03,08,06,00,3.20
2016,03,08,06,01,3.20
2016,03,08,06,02,3.20
2016,03,08,06,03,3.20
2016,03,08,06,04,3.20
2016,03,08,06,05,3.20
2016,03,08,06,06,3.20
2016,03,08,06,08,1.60
2016,03,08,06,09,3.20
2016,03,08,06,10,3.20
2016,03,08,06,11,3.20
2016,03,08,06,12,4.80
2016,03,08,06,13,4.80
2016,03,08,06,14,4.80
2016,03,08,06,15,3.20
2016,03,08,06,16,1.60
2016,03,08,06,17,3.20
2016,03,08,06,18,4.80
2016,03,08,06,19,4.80
2016,03,08,06,20,4.80
2016,03,08,06,21,4.80
2016,03,08,06,22,3.20
2016,03,08,06,23,3.20
2016,03,08,06,24,3.20
2016,03,08,06,25,3.20
2016,03,08,06,26,1.60
2016,03,08,06,27,1.60
2016,03,08,06,28,1.60
2016,03,08,06,29,1.60
2016,03,08,06,30,1.60
2016,03,08,06,31,1.60
2016,03,08,06,32,1.60
2016,03,08,06,33,1.60
2016,03,08,06,35,1.60
2016,03,08,06,36,1.60
2016,03,08,06,37,1.60
2016,03,08,06,38,1.60
2016,03,08,06,39,3.20
2016,03,08,06,40,3.20
2016,03,08,06,41,3.20
2016,03,08,06,42,4.80
2016,03,08,06,43,3.20
2016,03,08,06,44,3.20
2016,03,08,06,45,3.20
2016,03,08,06,46,1.60
2016,03,08,06,47,1.60
2016,03,08,06,48,1.60
2016,03,08,06,49,1.60
2016,03,08,06,50,1.60
2016,03,08,06,51,3.20
2016,03,08,06,52,3.20
2016,03,08,06,53,3.20
2016,03,08,06,54,1.60
2016,03,08,06,55,1.60
2016,03,08,06,56,1.60
2016,03,08,07,00,1.60
2016,03,08,07,01,1.60
2016,03,08,07,02,3.20
2016,03,08,07,03,3.20
2016,03,08,07,04,3.20
2016,03,08,07,05,1.60
2016,03,08,07,06,1.60
2016,03,08,07,07,1.60
2016,03,08,07,08,1.60
2016,03,08,07,09,1.60
2016,03,08,07,10,1.60
2016,03,08,07,25,1.60
2016,03,08,07,26,1.60
2016,03,08,07,34,1.60
2016,03,08,07,35,1.60
2016,03,08,07,38,1.60
2016,03,08,07,39,1.60
2016,03,08,07,40,1.60
2016,03,08,07,41,3.20
2016,03,08,07,42,3.20
2016,03,08,07,43,3.20
2016,03,08,07,44,3.20
2016,03,08,07,45,3.20
2016,03,08,07,46,3.20
2016,03,08,07,47,3.20
2016,03,08,07,48,3.20
2016,03,08,07,49,1.60
2016,03,08,07,50,1.60
2016,03,08,07,51,1.60
2016,03,08,07,52,3.20
2016,03,08,07,53,3.20
2016,03,08,07,54,3.20
2016,03,08,07,55,1.60
2016,03,08,07,56,1.60
2016,03,08,07,57,1.60
2016,03,08,07,58,3.20
2016,03,08,07,59,3.20
2016,03,08,08,00,3.20
2016,03,08,08,01,1.60
2016,03,08,08,02,1.60
2016,03,08,08,04,3.20
2016,03,08,08,05,3.20
2016,03,08,08,06,3.20
2016,03,08,08,07,1.60
2016,03,08,08,08,1.60
2016,03,08,08,09,1.60
2016,03,08,08,10,1.60
2016,03,08,08,21,1.60
2016,03,08,08,22,1.60
2016,03,08,08,23,4.80
2016,03,08,08,24,3.20
2016,03,08,08,25,3.20
2016,03,08,08,26,4.80
2016,03,08,08,27,8.10
2016,03,08,08,28,4.80
2016,03,08,08,29,4.80
2016,03,08,08,30,1.60
2016,03,08,08,31,1.60
2016,03,08,08,32,9.60
2016,03,08,08,33,8.10
2016,03,08,08,34,4.80
2016,03,08,08,35,3.20
2016,03,08,08,36,3.20
2016,03,08,08,37,1.60
2016,03,08,08,38,3.20
2016,03,08,08,39,4.80
2016,03,08,08,40,3.20
2016,03,08,08,41,3.20
2016,03,08,08,42,4.80
2016,03,08,08,43,4.80
2016,03,08,08,44,6.40
2016,03,08,08,45,3.20
2016,03,08,08,46,1.60
2016,03,08,08,47,3.20
2016,03,08,08,48,1.60
2016,03,08,08,49,3.20
2016,03,08,08,50,3.20
2016,03,08,08,51,1.60
2016,03,08,08,52,1.60
2016,03,08,08,53,1.60
2016,03,08,08,54,1.60
2016,03,08,08,56,1.60
2016,03,08,08,57,1.60
2016,03,08,08,59,1.60
2016,03,08,09,00,3.20
2016,03,08,09,01,3.20
2016,03,08,09,02,4.80
2016,03,08,09,03,4.80
2016,03,08,09,04,6.40
2016,03,08,09,05,4.80
2016,03,08,09,06,3.20
2016,03,08,09,07,3.20
2016,03,08,09,08,1.60
2016,03,08,09,09,1.60
2016,03,08,09,10,3.20
2016,03,08,09,11,4.80
2016,03,08,09,12,8.10
2016,03,08,09,13,4.80
2016,03,08,09,14,3.20
2016,03,08,09,16,1.60
2016,03,08,09,17,1.60
2016,03,08,09,18,1.60
2016,03,08,09,19,1.60
2016,03,08,09,20,1.60
2016,03,08,09,21,1.60
2016,03,08,09,22,1.60
2016,03,08,09,24,1.60
2016,03,08,09,25,1.60
2016,03,08,09,26,3.20
2016,03,08,09,27,1.60
2016,03,08,09,28,1.60
2016,03,08,09,29,1.60
2016,03,08,09,30,1.60
2016,03,08,09,31,1.60
2016,03,08,09,32,1.60
2016,03,08,09,33,1.60
2016,03,08,09,34,3.20
2016,03,08,09,35,3.20
2016,03,08,09,36,1.60
2016,03,08,09,37,1.60
2016,03,08,09,38,1.60
2016,03,08,09,39,1.60
2016,03,08,09,40,3.20
2016,03,08,09,42,1.60
2016,03,08,09,43,3.20
2016,03,08,09,44,1.60
2016,03,08,09,45,1.60
2016,03,08,09,46,1.60
2016,03,08,09,47,1.60
2016,03,08,09,50,1.60
2016,03,08,09,51,1.60
2016,03,08,09,52,1.60
2016,03,08,09,53,3.20
2016,03,08,09,54,1.60
2016,03,08,09,55,4.80
2016,03,08,09,56,6.40
2016,03,08,09,57,4.80
2016,03,08,09,58,4.80
2016,03,08,09,59,4.80
2016,03,08,10,00,4.80
2016,03,08,10,01,4.80
2016,03,08,10,02,3.20
2016,03,08,10,03,1.60
2016,03,08,10,04,1.60
2016,03,08,10,05,1.60
2016,03,08,10,06,1.60
2016,03,08,10,07,1.60
2016,03,08,10,08,1.60
2016,03,08,10,09,1.60
2016,03,08,10,10,1.60
2016,03,08,10,11,1.60
2016,03,08,10,12,1.60
2016,03,08,10,14,1.60
2016,03,08,10,16,1.60
2016,03,08,10,17,1.60
2016,03,08,10,18,3.20
2016,03,08,10,19,3.20
2016,03,08,10,20,3.20
2016,03,08,10,21,1.60
2016,03,08,10,22,1.60
2016,03,08,10,23,1.60
2016,03,08,10,24,1.60
2016,03,08,10,25,1.60
2016,03,08,10,27,1.60
2016,03,08,10,28,1.60
2016,03,08,10,30,3.20
2016,03,08,10,31,3.20
2016,03,08,10,32,3.20
2016,03,08,10,33,3.20
2016,03,08,10,34,4.80
2016,03,08,10,35,3.20
2016,03,08,10,36,3.20
2016,03,08,10,37,1.60
2016,03,08,10,38,3.20
2016,03,08,10,39,3.20
2016,03,08,10,40,3.20
2016,03,08,10,41,1.60
2016,03,08,10,42,1.60
2016,03,08,10,43,1.60
2016,03,08,10,44,3.20
2016,03,08,10,45,3.20
2016,03,08,10,46,1.60
2016,03,08,10,47,1.60
2016,03,08,10,48,1.60
2016,03,08,10,49,1.60
2016,03,08,10,50,3.20
2016,03,08,10,51,3.20
2016,03,08,10,52,1.60
2016,03,08,10,53,1.60
2016,03,08,10,55,3.20
2016,03,08,10,56,4.80
2016,03,08,10,57,4.80
2016,03,08,10,58,4.80
2016,03,08,10,59,3.20
2016,03,08,11,00,3.20
2016,03,08,11,01,3.20
2016,03,08,11,02,3.20
2016,03,08,11,03,3.20
2016,03,08,11,04,3.20
2016,03,08,11,05,3.20
2016,03,08,11,06,1.60
2016,03,08,11,07,3.20
2016,03,08,11,08,3.20
2016,03,08,11,09,1.60
2016,03,08,11,11,3.20
2016,03,08,11,12,1.60
2016,03,08,11,19,1.60
2016,03,08,11,21,3.20
2016,03,08,11,22,3.20
2016,03,08,11,23,1.60
2016,03,08,11,24,1.60
2016,03,08,11,25,3.20
2016,03,08,11,26,3.20
2016,03,08,11,27,1.60
2016,03,08,11,28,3.20
2016,03,08,11,29,6.40
2016,03,08,11,30,4.80
2016,03,08,11,31,3.20
2016,03,08,11,32,1.60
2016,03,08,11,33,4.80
2016,03,08,11,34,4.80
2016,03,08,11,35,3.20
2016,03,08,11,36,6.40
2016,03,08,11,37,6.40
2016,03,08,11,38,8.10
2016,03,08,11,39,11.30
2016,03,08,11,40,11.30
2016,03,08,11,41,11.30
2016,03,08,11,42,12.90
2016,03,08,11,43,11.30
2016,03,08,11,44,9.60
2016,03,08,11,45,8.10
2016,03,08,11,46,8.10
2016,03,08,11,47,3.20
2016,03,08,11,48,4.80
2016,03,08,11,49,8.10
2016,03,08,11,50,8.10
2016,03,08,11,51,6.40
2016,03,08,11,52,6.40
2016,03,08,11,53,6.40
2016,03,08,11,54,3.20
2016,03,08,11,55,3.20
2016,03,08,11,56,3.20
2016,03,08,11,57,4.80
2016,03,08,11,58,1.60
2016,03,08,11,59,3.20
2016,03,08,12,00,3.20
2016,03,08,12,01,3.20
2016,03,08,12,02,3.20
2016,03,08,12,03,3.20
2016,03,08,12,04,3.20
2016,03,08,12,05,8.10
2016,03,08,12,06,8.10
2016,03,08,12,07,8.10
2016,03,08,12,08,6.40
2016,03,08,12,09,8.10
2016,03,08,12,10,4.80
2016,03,08,12,11,4.80
2016,03,08,12,12,4.80
2016,03,08,12,13,4.80
2016,03,08,12,14,6.40
2016,03,08,12,15,6.40
2016,03,08,12,16,3.20
2016,03,08,12,17,1.60
2016,03,08,12,18,3.20
2016,03,08,12,19,6.40
2016,03,08,12,20,6.40
2016,03,08,12,21,9.60
2016,03,08,12,22,9.60
2016,03,08,12,23,8.10
2016,03,08,12,24,9.60
2016,03,08,12,25,8.10
2016,03,08,12,26,4.80
2016,03,08,12,27,9.60
2016,03,08,12,28,9.60
2016,03,08,12,29,9.60
2016,03,08,12,30,8.10
2016,03,08,12,31,11.30
2016,03,08,12,32,9.60
2016,03,08,12,33,14.50
2016,03,08,12,34,11.30
2016,03,08,12,35,8.10
2016,03,08,12,36,11.30
2016,03,08,12,37,6.40
2016,03,08,12,38,9.60
2016,03,08,12,39,9.60
2016,03,08,12,40,11.30
2016,03,08,12,41,16.10
2016,03,08,12,42,8.10
2016,03,08,12,43,9.60
2016,03,08,12,44,8.10
2016,03,08,12,45,4.80
2016,03,08,12,46,4.80
2016,03,08,12,47,1.60
2016,03,08,12,48,3.20
2016,03,08,12,49,4.80
2016,03,08,12,50,6.40
2016,03,08,12,51,9.60
2016,03,08,12,52,4.80
2016,03,08,12,53,6.40
2016,03,08,12,54,6.40
2016,03,08,12,55,4.80
2016,03,08,12,56,3.20
2016,03,08,12,57,1.60
2016,03,08,12,59,3.20
2016,03,08,13,00,4.80
2016,03,08,13,01,8.10
2016,03,08,13,02,6.40
2016,03,08,13,03,8.10
2016,03,08,13,04,4.80
2016,03,08,13,05,8.10
2016,03,08,13,06,9.60
2016,03,08,13,07,11.30
2016,03,08,13,08,11.30
2016,03,08,13,09,12.90
2016,03,08,13,10,9.60
2016,03,08,13,11,11.30
2016,03,08,13,12,8.10
2016,03,08,13,13,6.40
2016,03,08,13,14,11.30
2016,03,08,13,15,8.10
2016,03,08,13,16,6.40
2016,03,08,13,17,8.10
2016,03,08,13,18,9.60
2016,03,08,13,19,11.30
2016,03,08,13,20,8.10
2016,03,08,13,21,6.40
2016,03,08,13,22,8.10
2016,03,08,13,23,8.10
2016,03,08,13,24,9.60
2016,03,08,13,25,9.60
2016,03,08,13,26,8.10
2016,03,08,13,27,12.90
2016,03,08,13,28,9.60
2016,03,08,13,29,9.60
2016,03,08,13,30,9.60
2016,03,08,13,31,6.40
2016,03,08,13,32,11.30
2016,03,08,13,33,8.10
2016,03,08,13,34,4.80
2016,03,08,13,35,8.10
2016,03,08,13,36,11.30
2016,03,08,13,37,11.30
2016,03,08,13,38,9.60
2016,03,08,13,39,9.60
2016,03,08,13,40,11.30
2016,03,08,13,41,12.90
2016,03,08,13,42,12.90
2016,03,08,13,43,8.10
2016,03,08,13,44,8.10
2016,03,08,13,45,11.30
2016,03,08,13,46,11.30
2016,03,08,13,47,9.60
2016,03,08,13,48,8.10
2016,03,08,13,49,8.10
2016,03,08,13,50,11.30
2016,03,08,13,51,11.30
2016,03,08,13,52,9.60
2016,03,08,13,53,11.30
2016,03,08,13,54,12.90
2016,03,08,13,55,9.60
2016,03,08,13,56,11.30
2016,03,08,13,57,16.10
2016,03,08,13,58,12.90
2016,03,08,13,59,11.30
2016,03,08,14,00,12.90
2016,03,08,14,01,17.70
2016,03,08,14,02,14.50
2016,03,08,14,03,9.60
2016,03,08,14,04,12.90
2016,03,08,14,05,14.50
2016,03,08,14,06,14.50
2016,03,08,14,07,12.90
2016,03,08,14,08,12.90
2016,03,08,14,09,16.10
2016,03,08,14,10,12.90
2016,03,08,14,11,14.50
2016,03,08,14,12,12.90
2016,03,08,14,13,9.60
2016,03,08,14,14,11.30
2016,03,08,14,15,9.60
2016,03,08,14,16,11.30
2016,03,08,14,17,11.30
2016,03,08,14,18,14.50
2016,03,08,14,19,14.50
2016,03,08,14,20,12.90
2016,03,08,14,21,12.90
2016,03,08,14,22,14.50
2016,03,08,14,23,16.10
2016,03,08,14,24,9.60
2016,03,08,14,25,8.10
2016,03,08,14,26,8.10
2016,03,08,14,27,9.60
2016,03,08,14,28,8.10
2016,03,08,14,29,4.80
2016,03,08,14,30,9.60
2016,03,08,14,31,11.30
2016,03,08,14,32,9.60
2016,03,08,14,33,8.10
2016,03,08,14,34,8.10
2016,03,08,14,35,6.40
2016,03,08,14,36,6.40
2016,03,08,14,37,8.10
2016,03,08,14,38,3.20
2016,03,08,14,39,8.10
2016,03,08,14,40,6.40
2016,03,08,14,41,8.10
2016,03,08,14,42,8.10
2016,03,08,14,43,12.90
2016,03,08,14,44,12.90
2016,03,08,14,45,4.80
2016,03,08,14,46,3.20
2016,03,08,14,47,11.30
2016,03,08,14,48,12.90
2016,03,08,14,49,9.60
2016,03,08,14,50,9.60
2016,03,08,14,51,8.10
2016,03,08,14,52,8.10
2016,03,08,14,53,6.40
2016,03,08,14,54,9.60
2016,03,08,14,55,6.40
2016,03,08,14,56,9.60
2016,03,08,14,57,12.90
2016,03,08,14,58,11.30
2016,03,08,14,59,8.10
2016,03,08,15,00,6.40
2016,03,08,15,01,4.80
2016,03,08,15,02,11.30
2016,03,08,15,03,12.90
2016,03,08,15,04,4.80
2016,03,08,15,05,4.80
2016,03,08,15,06,4.80
2016,03,08,15,07,4.80
2016,03,08,15,08,6.40
2016,03,08,15,09,4.80
2016,03,08,15,10,4.80
2016,03,08,15,11,8.10
2016,03,08,15,12,11.30
2016,03,08,15,13,11.30
2016,03,08,15,14,8.10
2016,03,08,15,15,6.40
2016,03,08,15,16,6.40
2016,03,08,15,17,8.10
2016,03,08,15,18,8.10
2016,03,08,15,19,9.60
2016,03,08,15,20,6.40
2016,03,08,15,21,8.10
2016,03,08,15,22,8.10
2016,03,08,15,23,4.80
2016,03,08,15,24,6.40
2016,03,08,15,25,4.80
2016,03,08,15,26,8.10
2016,03,08,15,27,11.30
2016,03,08,15,28,14.50
2016,03,08,15,29,4.80
2016,03,08,15,30,12.90
2016,03,08,15,31,9.60
2016,03,08,15,32,6.40
2016,03,08,15,33,6.40
2016,03,08,15,34,6.40
2016,03,08,15,35,8.10
2016,03,08,15,36,9.60
2016,03,08,15,37,8.10
2016,03,08,15,38,8.10
2016,03,08,15,39,6.40
2016,03,08,15,40,9.60
2016,03,08,15,41,11.30
2016,03,08,15,42,11.30
2016,03,08,15,43,8.10
2016,03,08,15,44,8.10
2016,03,08,15,45,8.10
2016,03,08,15,46,6.40
2016,03,08,15,47,8.10
2016,03,08,15,48,8.10
2016,03,08,15,49,8.10
2016,03,08,15,50,4.80
2016,03,08,15,51,4.80
2016,03,08,15,52,8.10
2016,03,08,15,53,6.40
2016,03,08,15,54,4.80
2016,03,08,15,55,6.40
2016,03,08,15,56,8.10
2016,03,08,15,57,8.10
2016,03,08,15,58,4.80
2016,03,08,15,59,6.40
2016,03,08,16,00,11.30
2016,03,08,16,01,11.30
2016,03,08,16,02,11.30
2016,03,08,16,03,9.60
2016,03,08,16,04,14.50
2016,03,08,16,05,11.30
2016,03,08,16,06,9.60
2016,03,08,16,07,11.30
2016,03,08,16,08,8.10
2016,03,08,16,09,12.90
2016,03,08,16,10,11.30
2016,03,08,16,11,9.60
2016,03,08,16,12,8.10
2016,03,08,16,13,8.10
2016,03,08,16,14,9.60
2016,03,08,16,15,12.90
2016,03,08,16,16,11.30
2016,03,08,16,17,11.30
2016,03,08,16,18,8.10
2016,03,08,16,19,12.90
2016,03,08,16,20,11.30
2016,03,08,16,21,8.10
2016,03,08,16,22,9.60
2016,03,08,16,23,8.10
2016,03,08,16,24,9.60
2016,03,08,16,25,11.30
2016,03,08,16,26,12.90
2016,03,08,16,27,12.90
2016,03,08,16,28,9.60
2016,03,08,16,29,11.30
2016,03,08,16,30,6.40
2016,03,08,16,31,6.40
2016,03,08,16,32,4.80
2016,03,08,16,33,4.80
2016,03,08,16,34,4.80
2016,03,08,16,35,6.40
2016,03,08,16,36,1.60
2016,03,08,16,37,1.60
2016,03,08,16,38,4.80
2016,03,08,16,39,3.20
2016,03,08,16,40,1.60
2016,03,08,16,41,1.60
2016,03,08,16,43,1.60
2016,03,08,16,46,3.20
2016,03,08,16,51,1.60
2016,03,08,16,52,4.80
2016,03,08,16,53,8.10
2016,03,08,16,54,8.10
2016,03,08,16,55,8.10
2016,03,08,16,56,4.80
2016,03,08,16,57,6.40
2016,03,08,16,58,4.80
2016,03,08,16,59,8.10
2016,03,08,17,00,8.10
2016,03,08,17,01,11.30
2016,03,08,17,02,8.10
2016,03,08,17,03,8.10
2016,03,08,17,04,9.60
2016,03,08,17,05,8.10
2016,03,08,17,06,8.10
2016,03,08,17,07,11.30
2016,03,08,17,08,4.80
2016,03,08,17,09,3.20
2016,03,08,17,10,4.80
2016,03,08,17,11,4.80
2016,03,08,17,12,3.20
2016,03,08,17,13,3.20
2016,03,08,17,14,3.20
2016,03,08,17,15,6.40
2016,03,08,17,16,11.30
2016,03,08,17,17,8.10
2016,03,08,17,18,9.60
2016,03,08,17,19,4.80
2016,03,08,17,20,8.10
2016,03,08,17,21,11.30
2016,03,08,17,22,8.10
2016,03,08,17,23,6.40
2016,03,08,17,24,6.40
2016,03,08,17,25,4.80
2016,03,08,17,26,4.80
2016,03,08,17,27,4.80
2016,03,08,17,28,4.80
2016,03,08,17,29,3.20
2016,03,08,17,30,1.60
2016,03,08,17,31,3.20
2016,03,08,17,32,1.60
2016,03,08,17,33,3.20
2016,03,08,17,34,4.80
2016,03,08,17,35,4.80
2016,03,08,17,36,3.20
2016,03,08,17,37,4.80
2016,03,08,17,38,3.20
2016,03,08,17,39,3.20
2016,03,08,17,40,3.20
2016,03,08,17,41,4.80
2016,03,08,17,42,4.80
2016,03,08,17,43,6.40
2016,03,08,17,44,4.80
2016,03,08,17,45,3.20
2016,03,08,17,46,1.60
2016,03,08,17,47,3.20
2016,03,08,17,48,3.20
2016,03,08,17,49,3.20
2016,03,08,17,50,3.20
2016,03,08,17,51,3.20
2016,03,08,17,52,3.20
2016,03,08,17,53,4.80
2016,03,08,17,54,4.80
2016,03,08,17,55,4.80
2016,03,08,17,56,6.40
2016,03,08,17,57,8.10
2016,03,08,17,58,9.60
2016,03,08,17,59,4.80
2016,03,08,18,00,3.20
2016,03,08,18,01,4.80
2016,03,08,18,02,4.80
2016,03,08,18,03,4.80
2016,03,08,18,04,3.20
2016,03,08,18,05,3.20
2016,03,08,18,06,4.80
2016,03,08,18,07,4.80
2016,03,08,18,08,3.20
2016,03,08,18,09,1.60
2016,03,08,18,10,3.20
2016,03,08,18,11,1.60
2016,03,08,18,13,3.20
2016,03,08,18,17,1.60
2016,03,08,18,19,1.60
2016,03,08,18,20,3.20
2016,03,08,18,21,3.20
2016,03,08,18,22,3.20
2016,03,08,18,23,1.60
2016,03,08,18,24,3.20
2016,03,08,18,25,4.80
2016,03,08,18,26,8.10
2016,03,08,18,27,4.80
2016,03,08,18,28,3.20
2016,03,08,18,29,3.20
2016,03,08,18,30,3.20
2016,03,08,18,31,4.80
2016,03,08,18,32,1.60
2016,03,08,18,33,3.20
2016,03,08,18,34,3.20
2016,03,08,18,35,3.20
2016,03,08,18,36,1.60
2016,03,08,18,38,1.60
2016,03,08,19,16,1.60
2016,03,08,19,17,1.60
2016,03,08,19,19,1.60
2016,03,08,19,20,1.60
2016,03,08,19,21,1.60
2016,03,08,19,28,1.60
2016,03,08,19,29,1.60
2016,03,08,19,30,1.60
2016,03,08,19,31,1.60
2016,03,08,19,34,1.60
2016,03,08,19,37,1.60
2016,03,08,19,48,1.60
2016,03,08,20,23,1.60
2016,03,08,20,24,1.60
2016,03,08,20,25,1.60
2016,03,08,20,26,1.60
2016,03,08,20,27,1.60
2016,03,08,20,28,1.60
2016,03,08,20,39,1.60
2016,03,08,20,40,1.60
2016,03,08,21,04,1.60
2016,03,08,21,05,1.60
2016,03,08,21,06,1.60
2016,03,08,21,07,1.60
2016,03,08,21,08,1.60
2016,03,08,21,13,1.60
2016,03,08,21,14,1.60
2016,03,08,21,38,1.60
2016,03,08,21,39,1.60
2016,03,08,21,41,1.60
2016,03,08,21,43,1.60
2016,03,08,21,44,3.20
2016,03,08,21,45,3.20
2016,03,08,21,46,1.60
2016,03,08,21,47,1.60
2016,03,08,21,48,1.60
2016,03,08,21,49,1.60
2016,03,08,21,50,1.60
2016,03,08,21,52,1.60
2016,03,08,21,53,1.60
2016,03,08,21,54,3.20
2016,03,08,21,55,3.20
2016,03,08,21,56,1.60
2016,03,08,21,57,1.60
2016,03,08,21,58,1.60
2016,03,08,22,10,1.60
2016,03,08,22,12,1.60
2016,03,08,22,15,1.60
2016,03,08,22,16,1.60
2016,03,08,22,17,3.20
2016,03,08,22,18,3.20
2016,03,08,22,19,3.20
2016,03,08,22,20,3.20
2016,03,08,22,21,4.80
2016,03,08,22,22,3.20
2016,03,08,22,23,3.20
2016,03,08,22,24,3.20
2016,03,08,22,25,1.60
2016,03,08,22,26,1.60
2016,03,08,22,27,3.20
2016,03,08,22,28,3.20
2016,03,08,22,29,3.20
2016,03,08,22,30,4.80
2016,03,08,22,31,3.20
2016,03,08,22,32,1.60
2016,03,08,22,35,1.60
2016,03,08,22,37,3.20
2016,03,08,22,38,3.20
2016,03,08,22,39,1.60
2016,03,08,22,40,3.20
2016,03,08,22,41,1.60
2016,03,08,22,42,3.20
2016,03,08,22,43,3.20
2016,03,08,22,44,4.80
2016,03,08,22,45,4.80
2016,03,08,22,46,4.80
2016,03,08,22,47,3.20
2016,03,08,22,48,3.20
2016,03,08,22,49,1.60
2016,03,08,22,50,1.60
2016,03,08,22,51,3.20
2016,03,08,22,52,1.60
2016,03,08,22,53,1.60
2016,03,08,22,54,1.60
2016,03,08,22,55,1.60
2016,03,08,22,59,1.60
2016,03,08,23,00,1.60
2016,03,08,23,04,1.60
2016,03,08,23,06,1.60
2016,03,08,23,07,3.20
2016,03,08,23,08,1.60
2016,03,08,23,09,1.60
2016,03,08,23,11,3.20
2016,03,08,23,12,1.60
2016,03,08,23,13,1.60
2016,03,08,23,14,1.60
2016,03,08,23,15,1.60
2016,03,08,23,16,1.60
2016,03,08,23,17,3.20
2016,03,08,23,18,1.60
2016,03,08,23,19,1.60
2016,03,08,23,20,4.80
2016,03,08,23,21,3.20
2016,03,08,23,22,3.20
2016,03,08,23,23,3.20
2016,03,08,23,24,3.20
2016,03,08,23,25,1.60
2016,03,08,23,27,1.60
2016,03,08,23,29,1.60
2016,03,08,23,31,1.60
2016,03,08,23,33,3.20
2016,03,08,23,34,3.20
2016,03,08,23,35,3.20
2016,03,08,23,36,3.20
2016,03,08,23,37,1.60
2016,03,08,23,38,1.60
2016,03,08,23,45,1.60
2016,03,08,23,46,1.60
2016,03,08,23,47,1.60
2016,03,08,23,48,1.60
2016,03,08,23,49,1.60
2016,03,08,23,50,1.60
2016,03,08,23,53,1.60
2016,03,08,23,54,1.60